Lahr, Germany

2:06 AM CET on March 24, 2017 (GMT +0100)
Lahr

Weather History for EDTL - December, 2012

Change the Weather History Date:

Monday, December 31, 2012

  Actual Average (LFST) Record (LFST)
Temperature  
Mean Temperature 44 °F -  
Max Temperature 50 °F 38 °F 55 °F (2006)
Min Temperature 35 °F 29 °F 6 °F (1996)
Degree Days  
Heating Degree Days 21    
Moisture  
Dew Point 36 °F    
Average Humidity 62    
Maximum Humidity 82    
Minimum Humidity 52    
Precipitation  
Precipitation 0.00 in - - ()
Sea Level Pressure  
Sea Level Pressure 30.16 in    
Wind  
Wind Speed 8 mph ()    
Max Wind Speed 13 mph    
Max Gust Speed -    
Visibility 12.3 miles    
Events Rain    
Averages and records for this station are not official NWS values.
T = Trace of Precipitation, MM = Missing Value Source: Averaged Metar Reports

Daily Weather History Graph

Daily Weather History Graph

Search for Another Location

Airport or City:

Trip Planner

Search our weather history database for the weather conditions in past years. The results will help you decide how hot, cold, wet, or windy it might be!

Date:

Astronomy

Dec. 31, 2012 Rise Set
Actual Time 8:20 AM CET 4:43 PM CET
Civil Twilight 7:43 AM CET 5:20 PM CET
Nautical Twilight 7:03 AM CET 6:00 PM CET
Astronomical Twilight 6:25 AM CET 6:38 PM CET
Moon 8:14 PM CET (12/31) 9:38 AM CET (12/31)
Length of Visible Light 9h 36m
Length of Day
8h 23m
Waning Gibbous, 92% of the Moon is Illuminated
Dec 31
Waning Gibbous
Jan 5
Last Quarter
Jan 11
New
Jan 19
First Quarter
Jan 27
Full

Hourly Weather History & Observations

Time (CET) Temp. Dew Point Humidity Pressure Visibility Wind Dir Wind Speed Gust Speed Precip Events Conditions
12:00 AM 46 °F 38 °F 65% 30.32 in 31 mi SSW 8.9 mph - - Rain Rain
1:00 AM 46 °F 38 °F 65% 30.32 in 34 mi SSW 8.9 mph - - Rain Rain
2:00 AM 45 °F 37 °F 66% 30.30 in 31 mi South 4.5 mph - -   Overcast
3:00 AM 46 °F 37 °F 61% 30.30 in 34 mi South 8.9 mph - -   Overcast
4:00 AM 46 °F 37 °F 61% 30.29 in 34 mi SSW 11.2 mph - -   Overcast
5:00 AM 46 °F 37 °F 62% 30.27 in 40 mi South 11.2 mph - -   Overcast
6:00 AM 45 °F 37 °F 64% 30.25 in 37 mi SSW 11.2 mph - -   Partly Cloudy
7:00 AM 45 °F 36 °F 62% 30.24 in 37 mi South 11.2 mph - -   Partly Cloudy
8:00 AM 45 °F 36 °F 61% 30.24 in 37 mi SSW 13.4 mph - -   Scattered Clouds
9:00 AM 44 °F 36 °F 64% 30.24 in 37 mi SSW 13.4 mph - -   Partly Cloudy
10:00 AM 46 °F 37 °F 60% 30.23 in 37 mi SSW 11.2 mph - -   Partly Cloudy
11:00 AM 47 °F 38 °F 62% 30.21 in 37 mi SSW 11.2 mph - -   Scattered Clouds
12:00 PM 48 °F 38 °F 58% 30.18 in 37 mi South 11.2 mph - -   Scattered Clouds
1:00 PM 50 °F 39 °F 55% 30.15 in 40 mi SSW 13.4 mph - -   Overcast
2:00 PM 50 °F 38 °F 54% 30.12 in 44 mi SSW 11.2 mph - -   Scattered Clouds
3:00 PM 50 °F 38 °F 52% 30.09 in 47 mi SSW 8.9 mph - -   Scattered Clouds
4:00 PM 48 °F 37 °F 56% 30.08 in 47 mi SSW 8.9 mph - -   Scattered Clouds
5:00 PM 45 °F 36 °F 60% 30.06 in 47 mi South 4.5 mph - -   Scattered Clouds
6:00 PM 45 °F 35 °F 58% 30.03 in 44 mi South 6.7 mph - -  
7:00 PM 44 °F 35 °F 59% 30.01 in 28 mi South 4.5 mph - -  
8:00 PM 42 °F 34 °F 66% 29.99 in 13 mi South 6.7 mph - -  
9:00 PM 41 °F 34 °F 68% 29.98 in 7 mi South 2.2 mph - -  
10:00 PM 38 °F 33 °F 77% 29.96 in 18 mi WSW 4.5 mph - -  
11:00 PM 35 °F 31 °F 82% 29.94 in 11 mi SSE 2.2 mph - -